Notices

What's New in latest Release from April 7th, 2021:

- Updated Glossary, including Speed of Maximum Gust, and Total Hourly Precipitation

- Updated national and regional climate services offices contacts and prices information

- Addition of station inventory lists for 1981-2010, 1971-2000, and 1961-1990 Normals.

If you haven't already, please take our survey and provide feedback about our website: https://eccc.sondage-survey.ca/f/LanguageSelection.aspx?s=442ca660-fcf1-47c0-95a9-59707d6fd709

Hourly Data Report for August 19, 2004

SHERBROOKE A
QUEBEC

45°26'00.000" N
71°41'00.000" W
241.40 m
7028124
71610
YSC

Download Data

Hourly Data (August 2004)
Hourly Data Report for August 19, 2004
TIME
LST
Temp Definition
°C
Dew Point Definition
°C
Rel Hum Definition
%
Precip. Amount Definition
mm

Wind Dir Definition
10's deg

Wind Spd Definition
km/h
Visibility Definition
km
Stn Press Definition
kPa
Hmdx Definition


Wind Chill Definition


Weather Definition


00:00 16.4 14.7 90   19 6 4.8 98.39      
01:00 16.8 14.7 87   15 7 5.6 98.31      
02:00 16.9 14.8 87   12 9 4.8 98.27      
03:00 16.1 14.9 93     0 3.2 98.26      
04:00 16.4 14.9 91   15 4 4.0 98.27      
05:00 16.1 14.8 92   12 4 3.1 98.22      
06:00 18.9 16.2 84   20 4 4.8 98.23      
07:00 20.3 16.7 80   17 6 16.1 98.20 25   Mainly Clear
08:00 22.3 17.2 73   21 20 16.1 98.20 28   Mainly Clear
09:00 21.2 17.9 81   20 17 16.1 98.24 27   Mainly Clear
10:00 23.2 17.4 70   21 20 16.1 98.17 29   Mainly Clear
11:00 24.0 17.7 68   21 22 16.1 98.14 30   Mostly Cloudy
12:00 24.5 17.8 66   22 17 19.3 98.05 30   Mostly Cloudy
13:00 23.9 17.4 67   22 11 19.3 98.05 29   Mostly Cloudy
14:00 21.3 19.0 87   25 17 9.7 98.12 28   Thunderstorms,Moderate Rain Showers
15:00 18.3 17.1 93   20 9 19.3 98.16     Cloudy
16:00 18.9 17.5 92   21 6 19.3 98.16     Mostly Cloudy
17:00 19.5 17.5 88   19 9 15.0 98.18      
18:00 19.1 16.8 87   24 7 15.0 98.23      
19:00 17.5 15.6 89   22 6 15.0 98.29      
20:00 16.3 14.6 90   21 7 15.0 98.36      
21:00 15.5 13.9 90   24 4 15.0 98.42      
22:00 13.0 12.2 95     0 12.9 98.48      
23:00 12.1 11.4 95   10 4 5.6 98.48      

Notes on Data Quality.

Legend

  • E = Estimated
  • M = Missing
  • NA = Not Available*
  • [empty] = Indicates an unobserved value
Date modified: